This is the latest recevied weather packets stored in our database for station/object N6GPM. If no packets are shown the sender has not sent any weather packets the latest 10 day(s).
| Time | Temp. | Humidity | Pressure | Rain* | Wind** | Luminosity | Snow |
|---|---|---|---|---|---|---|---|
| 1777409687 | 21.67° C | 39% | 1019.6 hPa | 0 mm | - | 720 W/m² | - |
| 1777409383 | 21.11° C | 39% | 1019.6 hPa | 0 mm | - | 601 W/m² | - |
| 1777409079 | 21.67° C | 40% | 1019.2 hPa | 0 mm | - | 676 W/m² | - |
| 1777408776 | 21.11° C | 40% | 1019.4 hPa | 0 mm | - | 671 W/m² | - |
| 1777408472 | 21.11° C | 41% | 1019.4 hPa | 0 mm | - | 648 W/m² | - |
| 1777408167 | 21.67° C | 40% | 1019.6 hPa | 0 mm | - | 681 W/m² | - |
| 1777407862 | 21.11° C | 41% | 1019.6 hPa | 0 mm | - | 658 W/m² | - |
| 1777407560 | 21.67° C | 40% | 1019.6 hPa | 0 mm | - | 741 W/m² | - |
| 1777407259 | 21.11° C | 39% | 1019.5 hPa | 0 mm | - | 761 W/m² | - |
| 1777406953 | 21.11° C | 40% | 1019.5 hPa | 0 mm | - | 739 W/m² | - |
| 1777406648 | 21.11° C | 38% | 1019.7 hPa | 0 mm | - | 547 W/m² | - |
| 1777406344 | 21.67° C | 40% | 1020 hPa | 0 mm | - | 744 W/m² | - |
| 1777406044 | 20.56° C | 42% | 1020 hPa | 0 mm | - | 737 W/m² | - |
| 1777405741 | 20.56° C | 41% | 1020 hPa | 0 mm | - | 731 W/m² | - |
| 1777405436 | 20° C | 41% | 1020.1 hPa | 0 mm | - | 757 W/m² | - |
| 1777405134 | 20° C | 44% | 1020.1 hPa | 0 mm | - | 761 W/m² | - |
| 1777404832 | 20° C | 43% | 1020.1 hPa | 0 mm | - | 789 W/m² | - |
| 1777404529 | 20° C | 43% | 1020.3 hPa | 0 mm | - | 803 W/m² | - |
| 1777404225 | 20.56° C | 42% | 1020.3 hPa | 0 mm | - | 759 W/m² | - |
| 1777403922 | 20° C | 45% | 1020.1 hPa | 0 mm | - | 718 W/m² | - |
| 1777403620 | 19.44° C | 45% | 1020.3 hPa | 0 mm | - | 665 W/m² | - |
| 1777403316 | 18.89° C | 46% | 1020.4 hPa | 0 mm | - | 751 W/m² | - |
| 1777403010 | 20° C | 45% | 1020.5 hPa | 0 mm | - | 792 W/m² | - |
| 1777402705 | 20° C | 43% | 1020.3 hPa | 0 mm | - | 783 W/m² | - |
| 1777402400 | 18.89° C | 45% | 1020.6 hPa | 0 mm | - | 724 W/m² | - |
* Rain latest hour (hover to see other rain measurements)
** Current wind speed in m/s (hover to see current wind gust speed)